Main page
METAR-TAF:

METAR-TAF

Airports :

Bartow Municipal Airport

Bartow, Florida, United States

latitude: 27-57N, longitude: 081-47W, elevation: 128 ft

Current weather observation

The report was made 31 minutes ago, at 20:50 UTC
Wind 9 mph from the South/Southeast
Temperature 88°F
Humidity 36%
Pressure 30.14 in. Hg
Visibility: 10 miles
Scattered clouds at a height of 5000 ft

METAR: KBOW 272050Z 15008KT 10SM SCT050 31/14 A3014

Time: 16:21 (21:21 UTC)


TAF: missing

Weather observations and forecasts of more than 4000 airports (METAR and TAF reports).

The available stations are represented by yellow and red dots on the map.

Hover mouse over dot to see the name of the station.

Then click to see weather observations and forecasts.

To change the map : click on the green buttons with a black cross to zoom in, on the green button with a dash to zoom out, or on the green arrows for adjacent maps.


METAR-TAF: